Home > Weather > Ganganagar > Past weeks

Flag for India Past Weather in Ganganagar, Rajasthan, India — Yesterday and Last 2 Weeks

Now
82 °F

Scattered clouds.


Feels Like: 89 °F
Forecast: 83 / 95 °F
Wind: 6 mph from North

Location: Lahore Airport

Current Time: Aug 28, 2016 at 12:40:42 PM

Latest Report: Aug 28, 2016 at 11:55 AM


Visibility: 2 mi

Pressure: 29.83 "Hg

Humidity: 79%

Dew Point: 75 °F

Location of GanganagarLocation

Past Weather in Ganganagar — Graph

°F

Ganganagar Temperature Yesterday

Maximum temperature yesterday: 86 °F (at 12:29 AM)
Minimum temperature yesterday: 73 °F (at 9:25 AM)
Average temperature yesterday: 78 °F

High & Low Weather Summary for the Past Weeks

 TemperatureHumidityPressure
High100 °F (Aug 15, 3:25 PM)100% (Aug 24, 12:55 PM)29.86 "Hg (Aug 24, 12:55 PM)
Low72 °F (Aug 25, 7:25 AM)26% (Aug 21, 5:29 PM)29.42 "Hg (Aug 16, 5:55 PM)
Average86 °F73%29.61 "Hg
* Reported Aug 13 10:55 AM — Aug 28 10:59 AM, Ganganagar, Weather by CustomWeather, © 2016

Note: Actual official high and low records may vary slightly from our data, if they occured in-between our weather recording intervals... More about our weather records

Advertising

Ganganagar Weather History for the Previous 24 Hours

Scroll right to see more
 ConditionsComfort  
Time TempWeatherWind HumidityBarometerVisibility
10:59 AM
Sun, Aug 28
81 °FBroken clouds.5 mph79%29.86 "Hg2 mi
10:29 AM81 °FBroken clouds.3 mph79%29.83 "Hg2 mi
9:59 AM81 °FFog.3 mph84%29.83 "Hg2 mi
9:25 AM81 °FFog.3 mph84%29.83 "Hg2 mi
8:55 AM79 °FFog.3 mph89%29.83 "Hg2 mi
8:30 AM79 °FFog.5 mph89%29.80 "Hg1 mi
8:00 AM79 °FFog.3 mph84%29.80 "Hg2 mi
7:30 AM79 °FScattered clouds.3 mph84%29.80 "Hg2 mi
7:00 AM79 °FScattered clouds.5 mph84%29.77 "Hg2 mi
5:30 AM77 °FPassing clouds.No wind89%29.74 "Hg2 mi
5:00 AM77 °FPassing clouds.3 mph89%29.74 "Hg2 mi
3:55 AM77 °FSmoke.No wind89%29.74 "Hg2 mi
3:25 AM77 °FPartly cloudy.No wind89%29.74 "Hg2 mi
2:55 AM77 °FPartly cloudy.3 mph89%29.74 "Hg2 mi
2:25 AM77 °FPartly cloudy.3 mph89%29.74 "Hg2 mi
1:55 AM77 °FPartly cloudy.6 mph89%29.77 "Hg2 mi
1:25 AM77 °FPartly cloudy.7 mph89%29.77 "Hg2 mi
12:55 AM77 °FPassing clouds.5 mph89%29.77 "Hg2 mi
12:25 AM77 °FPassing clouds.3 mph89%29.80 "Hg2 mi
11:55 PM
Sat, Aug 27
77 °FPassing clouds.5 mph89%29.80 "Hg2 mi
11:25 PM77 °FPassing clouds.3 mph89%29.80 "Hg2 mi
11:00 PM77 °FPassing clouds.5 mph94%29.80 "Hg2 mi
10:30 PM77 °FPassing clouds.5 mph94%29.80 "Hg2 mi
10:00 PM75 °FPassing clouds.3 mph94%29.80 "Hg2 mi
9:30 PM75 °FPassing clouds.No wind94%29.80 "Hg2 mi
9:00 PM75 °FPartly cloudy.3 mph94%29.77 "Hg2 mi
8:30 PM75 °FPartly cloudy.7 mph94%29.77 "Hg2 mi
8:00 PM73 °FThundershowers. Mostly cloudy.8 mph100%29.77 "Hg2 mi
7:30 PM75 °FThunderstorms. Mostly cloudy.7 mph100%29.77 "Hg2 mi
7:00 PM75 °FThunderstorms. Mostly cloudy.6 mph100%29.77 "Hg2 mi
6:30 PM75 °FThunderstorms. Mostly cloudy.7 mph100%29.77 "Hg2 mi
6:00 PM75 °FThunderstorms. Mostly cloudy.7 mph100%29.77 "Hg2 mi
5:30 PM75 °FThunderstorms. Mostly cloudy.6 mph100%29.65 "Hg2 mi
5:00 PM75 °FThundershowers. Mostly cloudy.3 mph100%29.77 "Hg2 mi
4:30 PM75 °FThunderstorms. Mostly cloudy.5 mph100%29.77 "Hg2 mi
4:00 PM75 °FThunderstorms. Mostly cloudy.9 mph100%29.74 "Hg2 mi
3:30 PM75 °FThunderstorms. Mostly cloudy.7 mph100%29.77 "Hg2 mi
2:55 PM75 °FThunderstorms. Mostly cloudy.7 mph100%29.77 "Hg2 mi
2:25 PM75 °FThunderstorms. Partly sunny.9 mph100%29.80 "Hg2 mi
1:55 PM75 °FThunderstorms. Partly sunny.10 mph94%29.80 "Hg2 mi
1:25 PM75 °FThunderstorms. Partly sunny.12 mph94%29.80 "Hg2 mi
12:25 PM79 °FThunderstorms. Mostly cloudy.14 mph94%29.83 "Hg2 mi
Weather by CustomWeather, © 2016

See weather overviewHow to use our weather pages